CYYR

CFB Goose Bay

Airport
ICAO code
CYYR
IATA Code
YYR
Summary
ICAO Region
NAM
ICAO Territory
Location

Goose Bay, Labrador

Serving
Goose Bay
Elevation
160 ft
Coordinates
53° 18' 56" N , 60° 25' 6" W
KCC
Metar
CYYR 180251Z 01006KT 15SM OVC030 M01/M04 A3032 RMK SC8 DENSITY ALT -2168FT SLP271

Description

International civil and military (Canadian Forces) airport serving Happy Valley, Labrador. There is a significant amount of military flying activity between the airport and nearby military flying areas.

Climatology

Subarctic climate (Köppen climate classification Dfc) - long, usually very cold winters, and short, cool to mild summers.

Runways

Designator Length Width Surface Rops
16/34 2920 61 ASP Yes/Yes
8/26 3367 64 ASP Yes/Yes

Airport map

Aerial View

SKYbrary Partners:

Safety knowledge contributed by: